Location: Bletchingley
(51.2333°N, 0.1000°W)
Time: 04:49:43
(UTC+00:00)

Cosmos 2278 Rocket - Pass Details

Date: 18 September 2020
Orbit: 841 x 845 km, 71.0° (Epoch: 20 October)

Event Time Altitude Azimuth Distance (km) Brightness Sun altitude
Exits shadow 23:04:24 35° 347° (NNW) 1,329 3.6 -36.3°
Drops below altitude 10° 23:08:18 10° 22° (NNE) 2,472 5.2 -36.5°
Sets 23:10:53 0° 29° (NNE) 3,411 5.9 -36.6°
